User: anonymous
Location: NJAA Observatory
(40.6819°N, 74.8979°W)
Time: 18:07:30
(UTC-04:00)
Language:

CENTAUR R/B - Orbit

View from above orbital plane
View from above orbital plane
View from above satellite
View from above satellite

Ground track
Ground track

The orbit data is extracted from the following two-line orbital elements,

1 26906U 01040B   14217.86058789 0.00000020  00000-0  28066-4 0    05
2 26906  63.4675 133.4431 0263000 345.3157  14.6843 13.43912945    01
Epoch (UTC): 05 August 2014 20:39:14
Eccentricity: 0.0263000
inclination: 63.4675°
perigee height: 898 km
apogee height: 1291 km
right ascension of ascending node: 133.4431°
argument of perigee: 345.3157°
revolutions per day: 13.43912945
mean anomaly at epoch: 14.6843°
orbit number at epoch: 0

The dashed part of the orbit path shows where the satellite is in the earth's shadow,  

DLR